Weather History for Laurinburg-Maxton, NC

Change the Weather History Date:

Tuesday, November 26, 2013

  Actual Average (KLBT) Record (KLBT)
Temperature  
Mean Temperature 52 °F 51 °F  
Max Temperature 66 °F 64 °F 77 °F (2001)
Min Temperature 37 °F 39 °F 24 °F (2008)
Degree Days  
Heating Degree Days 14 14  
Month to date heating degree days 276  
Since 1 July heating degree days 408  
Cooling Degree Days 0 0  
Month to date cooling degree days 10  
Year to date cooling degree days 1904  
Growing Degree Days 2 (Base 50)    
Moisture  
Dew Point 50 °F    
Average Humidity 85    
Maximum Humidity 100    
Minimum Humidity 44    
Precipitation  
Precipitation 0.59 in 0.11 in 1.03 in (2013)
Month to date precipitation 2.48  
Year to date precipitation 40.24  
Sea Level Pressure  
Sea Level Pressure 29.90 in    
Wind  
Wind Speed 10 mph (SE)    
Max Wind Speed 18 mph    
Max Gust Speed 25 mph    
Visibility 8 miles    
Events Rain    
T = Trace of Precipitation, MM = Missing Value Source: NWS Daily Summary

Daily Weather History Graph

Daily Weather History Graph

Search for Another Location

Airport:

Trip Planner

Search our weather history database for the weather conditions in past years. The results will help you decide how hot, cold, wet, or windy it might be!

Date:

Astronomy

Nov. 26, 2013 Rise Set
Actual Time 7:02 AM EST 5:07 PM EST
Civil Twilight 6:34 AM EST 5:34 PM EST
Nautical Twilight 6:03 AM EST 6:05 PM EST
Astronomical Twilight 5:33 AM EST 6:36 PM EST
Moon 12:19 AM EST (11/26) 12:58 PM EST (11/26)
Length of Visible Light 10h 59m
Length of Day
10h 05m
Last Quarter, 41% of the Moon is Illuminated
Nov 26
Last Quarter
Dec 2
New
Dec 9
First Quarter
Dec 17
Full
Dec 25
Last Quarter

Hourly Weather History & Observations

Time (EST) Temp. Windchill Dew Point Humidity Pressure Visibility Wind Dir Wind Speed Gust Speed Precip Events Conditions
12:52 AM 37.0 °F 31.0 °F 17.1 °F 44% 30.32 in 10.0 mi ENE 8.1 mph - N/A   Overcast
1:52 AM 37.0 °F 31.6 °F 18.0 °F 46% 30.30 in 10.0 mi NNE 6.9 mph - N/A   Scattered Clouds
2:12 AM 37.0 °F 30.4 °F 17.1 °F 44% 30.28 in 10.0 mi NE 9.2 mph - N/A   Overcast
2:52 AM 37.9 °F 32.7 °F 18.0 °F 45% 30.28 in 10.0 mi NNE 6.9 mph - N/A   Overcast
3:52 AM 37.9 °F 32.7 °F 19.9 °F 48% 30.27 in 10.0 mi NNE 6.9 mph - N/A   Overcast
4:52 AM 37.9 °F 32.1 °F 21.9 °F 53% 30.25 in 10.0 mi NNE 8.1 mph - N/A   Overcast
5:41 AM 39.0 °F 32.3 °F 25.0 °F 57% 30.22 in 10.0 mi ENE 10.4 mph - N/A   Overcast
5:52 AM 39.0 °F 32.3 °F 25.0 °F 57% 30.22 in 10.0 mi NE 10.4 mph - N/A   Overcast
6:52 AM 39.9 °F 33.4 °F 30.0 °F 68% 30.21 in 10.0 mi ENE 10.4 mph - N/A   Overcast
7:52 AM 41.0 °F 33.9 °F 33.1 °F 73% 30.19 in 10.0 mi ENE 12.7 mph - N/A   Overcast
8:52 AM 43.0 °F 37.7 °F 35.1 °F 74% 30.17 in 10.0 mi ENE 9.2 mph - N/A   Overcast
9:52 AM 44.1 °F 39.0 °F 37.0 °F 76% 30.14 in 10.0 mi ENE 9.2 mph - N/A   Overcast
10:52 AM 46.9 °F - 41.0 °F 80% 30.09 in 10.0 mi East 9.2 mph - N/A   Overcast
11:52 AM 48.9 °F - 46.9 °F 93% 30.02 in 8.0 mi East 11.5 mph - 0.01 in Rain Light Rain
12:52 PM 52.0 °F - 51.1 °F 97% 29.97 in 4.0 mi ESE 8.1 mph - 0.04 in Rain Light Rain
1:52 PM 54.0 °F - 53.1 °F 97% 29.92 in 4.0 mi ESE 9.2 mph - 0.03 in Rain Rain
2:29 PM 55.0 °F - 55.0 °F 100% 29.90 in 3.0 mi ESE 9.2 mph - 0.06 in Rain Rain
2:52 PM 57.0 °F - 55.9 °F 96% 29.88 in 3.0 mi SE 10.4 mph - 0.10 in Rain Rain
3:01 PM 57.0 °F - 57.0 °F 100% 29.87 in 4.0 mi SE 10.4 mph - 0.01 in Rain Light Rain
3:10 PM 59.0 °F - 57.9 °F 96% 29.86 in 4.0 mi SE 12.7 mph - 0.03 in Rain Light Rain
3:52 PM 60.1 °F - 60.1 °F 100% 29.83 in 6.0 mi SE 16.1 mph - 0.09 in Rain Light Rain
4:52 PM 61.0 °F - 61.0 °F 100% 29.76 in 3.0 mi SE 16.1 mph - 0.06 in Rain Rain
5:52 PM 63.0 °F - 62.1 °F 97% 29.74 in 6.0 mi SSE 16.1 mph - 0.13 in Rain Light Rain
6:09 PM 63.0 °F - 63.0 °F 100% 29.73 in 2.5 mi SSE 18.4 mph 25.3 mph 0.06 in Rain Heavy Rain
6:17 PM 63.0 °F - 63.0 °F 100% 29.72 in 5.0 mi SSE 18.4 mph - 0.07 in Rain Light Rain
6:41 PM 64.0 °F - 63.0 °F 96% 29.71 in 10.0 mi SSE 18.4 mph - 0.08 in Rain Light Rain
6:52 PM 64.0 °F - 63.0 °F 96% 29.71 in 3.0 mi South 13.8 mph - 0.12 in Rain Heavy Rain
7:15 PM 64.0 °F - 64.0 °F 100% 29.71 in 7.0 mi South 11.5 mph - 0.01 in Rain Light Rain
7:52 PM 64.0 °F - 64.0 °F 100% 29.69 in 10.0 mi South 11.5 mph - 0.01 in   Overcast
8:50 PM 66.2 °F - 64.4 °F 94% 29.66 in 10.0 mi South 13.8 mph - N/A   Overcast
8:52 PM 66.0 °F - 64.9 °F 96% 29.66 in 10.0 mi South 13.8 mph - N/A   Overcast
9:45 PM 66.0 °F - 66.0 °F 100% 29.62 in 10.0 mi South 12.7 mph - N/A   Overcast
9:52 PM 66.9 °F - 66.0 °F 97% 29.62 in 10.0 mi South 12.7 mph - N/A   Overcast
10:10 PM 66.9 °F - 66.0 °F 97% 29.62 in 10.0 mi South 12.7 mph - N/A   Overcast
10:27 PM 66.9 °F - 66.0 °F 97% 29.61 in 10.0 mi SSW 11.5 mph - N/A   Overcast
10:34 PM 66.9 °F - 66.0 °F 97% 29.61 in 10.0 mi SSW 12.7 mph - N/A   Overcast
10:52 PM 66.9 °F - 66.0 °F 97% 29.60 in 10.0 mi SSW 12.7 mph - N/A   Overcast
11:30 PM 66.9 °F - 66.0 °F 97% 29.60 in 10.0 mi SSW 11.5 mph - N/A   Mostly Cloudy
11:52 PM 66.9 °F - 66.0 °F 97% 29.58 in 10.0 mi SSW 10.4 mph - N/A   Mostly Cloudy